TimePST,TemperatureF,Dew PointF,Humidity,Sea Level PressureIn,VisibilityMPH,Wind Direction,Wind SpeedMPH,Gust SpeedMPH,PrecipitationIn,Events,Conditions,WindDirDegrees,DateUTC
12:56 AM,10.9,3.9,73,30.47,10.0,Calm,Calm,-,N/A,,Clear,0,2013-01-14 08:56:00
1:56 AM,10.9,3.9,73,30.49,10.0,Calm,Calm,-,N/A,,Clear,0,2013-01-14 09:56:00
2:56 AM,10.9,3.9,73,30.49,10.0,ENE,3.5,-,N/A,,Clear,70,2013-01-14 10:56:00
3:56 AM,10.0,3.0,73,30.51,10.0,Calm,Calm,-,N/A,,Clear,0,2013-01-14 11:56:00
4:56 AM,10.0,3.0,73,30.52,10.0,Calm,Calm,-,N/A,,Clear,0,2013-01-14 12:56:00
5:56 AM,10.0,3.9,76,30.54,10.0,Calm,Calm,-,N/A,,Clear,0,2013-01-14 13:56:00
6:56 AM,9.0,3.0,77,30.57,10.0,Calm,Calm,-,N/A,,Clear,0,2013-01-14 14:56:00
7:56 AM,10.9,3.9,73,30.59,6.0,Calm,Calm,-,N/A,,Haze,0,2013-01-14 15:56:00
8:56 AM,17.1,7.0,65,30.60,10.0,Calm,Calm,-,N/A,,Clear,0,2013-01-14 16:56:00
9:56 AM,26.1,9.0,49,30.58,10.0,WNW,3.5,-,N/A,,Clear,300,2013-01-14 17:56:00
10:56 AM,26.1,8.1,47,30.58,10.0,NW,6.9,-,N/A,,Clear,310,2013-01-14 18:56:00
11:56 AM,28.9,10.0,45,30.55,10.0,Variable,4.6,-,N/A,,Clear,0,2013-01-14 19:56:00
12:56 PM,32.0,12.0,44,30.53,10.0,Variable,4.6,-,N/A,,Clear,0,2013-01-14 20:56:00
1:56 PM,30.9,10.9,43,30.53,10.0,Variable,3.5,-,N/A,,Clear,0,2013-01-14 21:56:00
2:56 PM,30.9,10.9,43,30.55,10.0,NW,8.1,-,N/A,,Clear,310,2013-01-14 22:56:00
3:56 PM,30.0,10.9,45,30.55,10.0,Variable,3.5,-,N/A,,Clear,0,2013-01-14 23:56:00
4:56 PM,28.0,10.9,49,30.55,10.0,NW,4.6,-,N/A,,Clear,310,2013-01-15 00:56:00
5:56 PM,26.1,10.9,53,30.56,10.0,Calm,Calm,-,N/A,,Clear,0,2013-01-15 01:56:00
6:56 PM,24.1,14.0,65,30.57,8.0,Calm,Calm,-,N/A,,Clear,0,2013-01-15 02:56:00
7:56 PM,23.0,14.0,68,30.57,10.0,Calm,Calm,-,N/A,,Clear,0,2013-01-15 03:56:00
8:56 PM,19.9,12.9,74,30.56,5.0,Calm,Calm,-,N/A,,Haze,0,2013-01-15 04:56:00
9:56 PM,21.9,12.9,68,30.55,7.0,Calm,Calm,-,N/A,,Clear,0,2013-01-15 05:56:00
10:56 PM,24.1,12.9,62,30.55,10.0,Calm,Calm,-,N/A,,Clear,0,2013-01-15 06:56:00
11:56 PM,25.0,12.0,58,30.54,10.0,Variable,3.5,-,N/A,,Clear,0,2013-01-15 07:56:00